Retour au catalogue

STARLINK-1762

ActifCommunicationsVLEO
NORAD 46342·PAYLOAD·🇺🇸 United States

Lancé Sep 3, 2020 depuis Cape Canaveral Space Force Station

Loading…

Prochains Passages (prochaines 24 heures)

TLE

FraisSource: CelesTrak SupGP

Époque: Sep 14, 2026, 20:25 UTC

1 46342C 20062U   26257.85118056  .00060479  00000+0  11359-2 0  2578
2 46342  53.1502 201.0136 0004900  98.6381 348.2396 15.47962044    16

Suivez STARLINK-1762 en temps réel avec AllMySat

Download on the App Store